Weather in Kovyl'noye

Russia / Republic of Crimea     45°41′19″N   33°31′43″E
temp.,
°C
wind,
m/s
gust,
m/s
humid.,
%
clouds,
%
prec.,
mm/h
press.,
hPa
HPBL,
m
28 february, sun
sun2800:00+4nnw5979100 0.0 1020469
03:00+4nnw5882100 0.1 1020525
06:00+4nw5883100 0.1 1020570
09:00+4nnw6888100 0.3 1021666
12:00+4nw688195 0.3 1022671
15:00+5nw677097 0.5 1022961
18:00+5nw677693 0.2 1023781
21:00+3nw368492 0.3 1024255
1 march, mon
mon100:00+3nw367999 0.1 1024472
03:00+2wnw3579100 0.1 1024303
06:00+1wnw237993 0.0 102439
09:00+3nne127394 0.0 1025204
12:00+5nne2260100 0.0 1026960
15:00+6n435693 0.0 10261050
18:00+4n446846 0.0 1027461
21:00+2n228348 0.0 102929
2 march, tue
tue200:00+2nne358249 0.0 1030110
03:00+1n358646 0.0 1031108
06:000n338453 0.0 103153
09:00+2nnw236843 0.0 1031317
12:00+5nw445439 0.0 10301130
15:00+5wnw665743 0.0 1029966
18:00+4w696867 0.0 1026736
21:00+3wsw6128143 0.0 1025501
3 march, wed
wed300:00+4wsw714810 0.0 1023439
03:00+5w713840 0.0 1021415
06:00+4nnw6118124 0.0 1022491
09:00+4nnw8116562 0.1 10241235
12:00+7nnw7105851 0.0 10251195
15:00+8nnw684925 0.0 10261360
18:00+7nnw34530 0.0 1026178
21:00+4nnw22620 0.0 102827
4 march, thu
thu400:00+3ne11690 0.0 102822
03:00+2ssw12700 0.0 102723
06:00+2ssw34760 0.0 102642
09:00+4ssw46720 0.0 1026220
12:00+9wsw56590 0.0 10241095
15:00+9sw675426 0.0 10221096
18:00+7sw69620 0.0 1020763
21:00+4ssw612770 0.0 1020518